Location: ??????????
(54.4061°N, 22.6114°E)
Time: 11:58:18
(UTC+00:00)

STARLINK-33 - Pass Details

Date: 23 October 2019
Orbit: 548 x 551 km, 53.0° (Epoch: 11 November)

Event Time Altitude Azimuth Distance (km) Brightness Sun altitude
Rises 16:41:49 0° 273° (W) 2,718 9.2 -13.4°
Reaches altitude 10° 16:44:03 10° 271° (W) 1,824 7.7 -13.7°
Maximum altitude 16:48:11 71° 188° (S) 586 3.7 -14.3°
Enters shadow 16:50:32 25° 109° (ESE) 1,146 4.7 -14.6°
